White Plains, CT

2:57 PM EDT on June 22, 2017 (GMT -0400)
Westchester County

Weather History for KHPN - June, 2013

Change the Weather History Date:

Friday, June 14, 2013

  Actual Average Record
Temperature  
Mean Temperature 61 °F -  
Max Temperature 73 °F 73 °F 96 °F (1988)
Min Temperature 51 °F 56 °F 46 °F (1979)
Degree Days  
Heating Degree Days 4    
Growing Degree Days 11 (Base 50)    
Moisture  
Dew Point 52 °F    
Average Humidity 77    
Maximum Humidity 93    
Minimum Humidity 55    
Precipitation  
Precipitation 0.34 in - - ()
Sea Level Pressure  
Sea Level Pressure 29.74 in    
Wind  
Wind Speed 10 mph (NNW)    
Max Wind Speed 16 mph    
Max Gust Speed 25 mph    
Visibility 9 miles    
Events Rain    
Averages and records for this station are not official NWS values.
T = Trace of Precipitation, MM = Missing Value Source: NWS Daily Summary

Daily Weather History Graph

Daily Weather History Graph

Search for Another Location

Airport or City:

Trip Planner

Search our weather history database for the weather conditions in past years. The results will help you decide how hot, cold, wet, or windy it might be!

Date:

Astronomy

Jun. 14, 2013 Rise Set
Actual Time 5:21 AM EDT 8:28 PM EDT
Civil Twilight 4:48 AM EDT 9:02 PM EDT
Nautical Twilight 4:05 AM EDT 9:45 PM EDT
Astronomical Twilight 3:14 AM EDT 10:36 PM EDT
Moon 10:56 AM EDT (6/14) No Moon Set
Length of Visible Light 16h 14m
Length of Day
15h 06m
Waxing Crescent, 30% of the Moon is Illuminated
Jun 14
Waxing Crescent
Jun 16
First Quarter
Jun 23
Full
Jun 30
Last Quarter
Jul 8
New

Hourly Weather History & Observations

Time (EDT) Temp. Dew Point Humidity Pressure Visibility Wind Dir Wind Speed Gust Speed Precip Events Conditions
12:56 AM 54.0 °F 50.0 °F 86% 29.56 in 5.0 mi North 11.5 mph 25.3 mph 0.06 in Rain Light Rain
1:56 AM 53.1 °F 50.0 °F 89% 29.58 in 3.0 mi North 10.4 mph 25.3 mph 0.08 in Rain Light Rain
2:56 AM 53.1 °F 50.0 °F 89% 29.60 in 4.0 mi North 13.8 mph - 0.07 in Rain Light Rain
3:56 AM 52.0 °F 50.0 °F 93% 29.61 in 6.0 mi North 11.5 mph - 0.07 in Rain Light Rain
4:56 AM 52.0 °F 48.9 °F 89% 29.63 in 8.0 mi NW 12.7 mph - 0.04 in Rain Light Rain
5:35 AM 51.8 °F 48.2 °F 88% 29.65 in 10.0 mi NNW 16.1 mph - 0.02 in Rain Light Rain
5:56 AM 52.0 °F 48.9 °F 89% 29.66 in 10.0 mi North 13.8 mph 23.0 mph 0.02 in   Overcast
6:56 AM 53.1 °F 48.9 °F 86% 29.69 in 10.0 mi North 12.7 mph - N/A   Overcast
7:56 AM 54.0 °F 48.9 °F 83% 29.69 in 10.0 mi NNW 10.4 mph - N/A   Overcast
8:56 AM 55.0 °F 50.0 °F 83% 29.71 in 10.0 mi NNW 11.5 mph - N/A   Mostly Cloudy
9:56 AM 57.0 °F 50.0 °F 77% 29.75 in 10.0 mi NNW 12.7 mph - N/A   Overcast
10:56 AM 60.1 °F 50.0 °F 69% 29.78 in 10.0 mi NNE 11.5 mph 20.7 mph N/A   Overcast
11:56 AM 62.1 °F 50.0 °F 65% 29.78 in 10.0 mi North 9.2 mph 16.1 mph N/A   Mostly Cloudy
12:56 PM 64.0 °F 51.1 °F 63% 29.79 in 10.0 mi North 9.2 mph - N/A   Mostly Cloudy
1:56 PM 66.9 °F 54.0 °F 63% 29.78 in 10.0 mi Calm Calm - N/A   Scattered Clouds
2:56 PM 70.0 °F 53.1 °F 55% 29.77 in 10.0 mi Variable 4.6 mph - N/A   Scattered Clouds
3:56 PM 71.1 °F 55.0 °F 57% 29.75 in 10.0 mi Variable 3.5 mph - N/A   Scattered Clouds
4:56 PM 66.0 °F 54.0 °F 65% 29.77 in 10.0 mi ESE 5.8 mph - N/A   Overcast
5:56 PM 64.9 °F 55.0 °F 70% 29.79 in 10.0 mi East 5.8 mph - N/A   Mostly Cloudy
6:56 PM 64.9 °F 55.9 °F 73% 29.81 in 10.0 mi South 4.6 mph - N/A   Partly Cloudy
7:56 PM 62.1 °F 57.0 °F 84% 29.82 in 10.0 mi Calm Calm - N/A   Scattered Clouds
8:56 PM 62.1 °F 55.9 °F 80% 29.83 in 10.0 mi West 4.6 mph - N/A   Scattered Clouds
9:56 PM 60.1 °F 55.0 °F 83% 29.85 in 10.0 mi WNW 6.9 mph - N/A   Clear
10:56 PM 63.0 °F 53.1 °F 70% 29.86 in 10.0 mi NW 9.2 mph - N/A   Clear
11:56 PM 61.0 °F 55.0 °F 81% 29.87 in 10.0 mi WNW 6.9 mph - N/A   Clear